Regional Weather Roundup
Issued by NWS Sterling, VA

Home | Current Version | Previous Version | Text Only | Print | Product List | Glossary On
Versions: 1 2 3 4 5 6 7 8 9 10 11 12 13 14 15 16 17 18 19 20 21 22 23 24 25 26 27
000
ASUS41 KLWX 010510
RWRLWX

REGIONAL WEATHER ROUNDUP
NATIONAL WEATHER SERVICE BALTIMORE MD/WASHINGTON DC
100 AM EDT THU SEP 01 2016

Note: "FAIR" indicates few or no clouds below 12,000 feet
with no significant weather and/or obstructions to visibility.
 TC=TEMPERATURE CELSIUS

 * =Non NWS site. Station does not report precipitation (e.g. rain,
    snow, etc.), thunder, or fog.

DCZ001-MDZ009-015-VAZ040>042-051-053>054-010600-
WASHINGTON METRO

CITY           SKY/WX    TMP DP  RH WIND       PRES   REMARKS
WASHINGTON NAT CLOUDY    80  71  74 W5        29.88S
DULLES         LGT RAIN  74  71  91 CALM      29.89S
ANDREWS AFB    CLOUDY    76  69  78 N5        29.87S
FT BELVOIR     PTCLDY    77  67  71 CALM      29.87S
QUANTICO       MOCLDY    77  67  71 SW6       29.88S
COLLEGE PARK*  MOCLDY    75  66  73 CALM      29.87F
LEESBURG*      CLOUDY    77  68  73 NE5       29.89F
MANASSAS*      MOCLDY    75  70  83 CALM      29.88F
GAITHERSBURG*  CLOUDY    72  63  73 CALM      29.93F

$$

MDZ006>007-011-014-010600-
BALTIMORE METRO

CITY           SKY/WX    TMP DP  RH WIND       PRES   REMARKS
BWI AIRPORT    LGT RAIN  76  70  82 NE8       29.87F
MD SCIENCE CTR   N/A     74  71  91 MISG      29.88F
MARTIN STATE   RAIN      72  72 100 CALM      29.90F
ANNAPOLIS      CLOUDY    80  71  74 NW7       29.87R
FORT MEADE*    CLOUDY    72  68  88 CALM      29.90F

$$

MDZ012-015-019>023-010600-
MARYLAND EASTERN SHORE

CITY           SKY/WX    TMP DP  RH WIND       PRES   REMARKS
OCEAN CITY     CLEAR     78  70  76 SW7       29.89F
SALISBURY      PTCLDY    72  69  90 CALM      29.89F
BAY BRIDGE AP* CLOUDY    81  72  74 MISG      29.87S
CAMBRIDGE*     CLOUDY    77  70  78 S7        29.87F
EASTON*        CLOUDY    78  74  90 S7        29.90F

$$

MDZ017>025-010600-
SOUTHERN MARYLAND

CITY           SKY/WX    TMP DP  RH WIND       PRES   REMARKS
PATUXENT RIVER CLOUDY    78  69  73 SW9       29.87F
ST INIGOES     CLOUDY    79  71  76 S10       29.88S
LEONARDTOWN*   CLOUDY    73  70  88 SW5       29.89F

$$

MDZ003>005-010600-
NORTH CENTRAL MARYLAND

CITY           SKY/WX    TMP DP  RH WIND       PRES   REMARKS
FREDERICK*     RAIN      72  72 100 CALM      29.92S
HAGERSTOWN APT CLOUDY    77  65  66 N10       29.90F

$$

MDZ501>502-010600-
WESTERN MARYLAND

CITY           SKY/WX    TMP DP  RH WIND       PRES   REMARKS
OAKLAND*       CLOUDY    61  61 100 E3        30.02F FOG
CUMBERLAND*    CLOUDY    70  64  83 N9        29.96S

$$

VAZ025>031-010600-
SHENANDOAH VALLEY

CITY           SKY/WX    TMP DP  RH WIND       PRES   REMARKS
WINCHESTER*    PTCLDY    77  63  61 CALM      29.90S
FRONT ROYAL*   FAIR      72  68  88 CALM      29.89F
LURAY*         FAIR     N/A N/A N/A CALM      29.91S
NEW MARKET*    FAIR     N/A N/A N/A CALM      29.91R
STAUNTON*      PTCLDY    68  67  98 CALM      29.94F
WAYNESBORO*    FAIR      69  67  95 CALM      29.94F

$$

WVZ021-048>050-054>055-010600-
EASTERN WEST VIRGINIA PANHANDLE

CITY           SKY/WX    TMP DP  RH WIND       PRES   REMARKS
MARTINSBURG    CLOUDY    75  65  70 NE6       29.89S
PETERSBURG*    CLOUDY    74  66  76 CALM      29.92R

$$

VAZ036>039-050-010600-
CENTRAL FOOTHILLS

CITY           SKY/WX    TMP DP  RH WIND       PRES   REMARKS
CHARLOTTESVILL PTCLDY    72  69  90 S3        29.90S
CULPEPER*      CLEAR     71  70  96 CALM      29.90S
ORANGE*          N/A     72  72 100 CALM      29.91F
GORDONSVILLE*  MOCLDY    72  72 100 CALM      29.90S
WARRENTON*     FAIR      73  65  78 CALM      29.88F

$$

VAZ055>057-010600-
NORTH AND CENTRAL PIEDMONT

CITY           SKY/WX    TMP DP  RH WIND       PRES   REMARKS
FREDERICKSBRG* PTCLDY    73  72  95 S5        29.87S
STAFFORD*      PTCLDY    71  69  92 CALM      29.92S

$$

NCZ024-NYZ072-PAZ021-071-VAZ022-071-010600-
OTHER REGIONAL OBSERVATIONS

CITY           SKY/WX    TMP DP  RH WIND       PRES   REMARKS
NEW YORK CITY  LGT RAIN  77  66  68 VRB6      29.90S
PHILADELPHIA   LGT RAIN  76  71  85 W7        29.89S
PITTSBURGH     CLOUDY    69  66  90 NW7       29.96F FOG
ROANOKE        CLOUDY    71  69  93 CALM      29.96F
RICHMOND       CLOUDY    74  72  93 CALM      29.90F
RALEIGH        PTCLDY    75  71  87 SW5       29.94S

$$

ANZ530>537-010600-
MARINE OBSERVATIONS

STATION/POSITION TIME  TEMP    WIND        PRES
                       AIR SEA DIR/SP/G
                 (UTC) (F)     (DEG/KT/KT) (MB)
THOMAS PT LIGHT  0500   80 82  200/ 16/ 19 1012.6R
BALT KEY BRIDGE  0442   75      10/ 11/ 14 1011.7R
COVE POINT       0442   78     220/ 12/ 14 1012.0F
LEWISETTA        0448   78 84  230/  8/ 10 1011.6F
SOLOMONS ISLAND  0448          210/ 11/ 13   N/A
PINEY POINT      0448          220/  7/  8   N/A

$$





USA.gov is the U.S. government's official web portal to all federal, state and local government web resources and services.